Buhl, MN (55713)

2:21 PM CST on December 21, 2014 (GMT -0600)
Chisholm-hibbing | Change Station
CLOSE
Current Station
Airport
Location: Hibbing,
Elevation: 1352 ft
Nearby Weather Stations

Elev 1352 ft 47.39 °N, 92.84 °W | Updated 28 minutes ago

Fog
Fog
32 °F
Feels Like 25 °F
N
8
Wind Variable Wind from SSE

Today
High -- | Low -- °F
--% Chance of Precip.
Yesterday
High -- | Low -- °F
Precip. -- in
7:56 AM 4:22 PM
Waning Crescent, 0% visible
Pressure 29.79 in
Visibility 1.2 miles
Clouds Overcast 200 ft
Windchill 25 °F
Dew Point 29 °F
Humidity 88%
Rainfall 0.00 in
Snow Depth Not available.
UV 0 out of 12
Pollen .10 out of 12
Air Quality Not available.
Flu Activity Not available.
METAR KHIB 211953Z AUTO 15007KT 1 1/4SM BR OVC002 00/M02 A2973 RMK AO2 SLP086 I1001 T00001017

More Conditions Fewer Conditions

Pressure 29.79 in
Visibility 1.2 miles
Clouds Overcast 200 ft
Windchill 25 °F
Dew Point 29 °F
Humidity 88%
Rainfall 0.00 in
Snow Depth Not available.
UV 0 out of 12
Pollen .10 out of 12
Air Quality Not available.
Flu Activity Not available.
METAR KHIB 211953Z AUTO 15007KT 1 1/4SM BR OVC002 00/M02 A2973 RMK AO2 SLP086 I1001 T00001017

More Conditions Fewer Conditions

10-Day Weather Forecast

Almanac

Astronomy

Dec. 21, 2014 Rise Set
Actual Time
Civil Twilight
Nautical Twilight
Astronomical Twilight
Moon
Length of Visible Light
Length of Day
Tomorrow will be .
, % of the Moon is Illuminated

Today's Extremes

State Highs State Lows

Community

WunderPhotos

Upload Photos

1,779,469 photos uploaded!

WunderBlogs® & News

Nearby

Air Quality

  Air Quality AQ Index Pollutant
Not available.

Snow Depth

Station Depth Elevation

Earthquake Activity

City Distance Mag. Time & Date
Minimum magnitude displayed is 2.5.

Coastal Water Temperatures

Place Temperature

Nearby Weather Stations